カタログに戻る

STARLINK-35979

運用中通信VLEO
NORAD 66809·PAYLOAD·🇺🇸 United States

打ち上げ Dec 1, 2025 から Cape Canaveral Space Force Station

Loading…

次のパス (今後24時間)

TLE

最新Source: CelesTrak SupGP

元期: Sep 15, 2026, 02:35 UTC

1 66809C 25278U   26258.10812500  .00056547  00000+0  20483-2 0  2586
2 66809  43.0005 124.9913 0001523 277.2072  95.5452 15.27546689    14

AllMySatでSTARLINK-35979をリアルタイム追跡

Download on the App Store